Regional Weather Roundup
Issued by NWS

Home | Current Version | Previous Version | Graphics & Text | Print | Product List | Glossary On
Versions: 1 2 3 4 5 6 7 8 9 10 11 12 13 14 15 16 17 18 19 20 21 22 23 24 25 26 27 28 29 30 31 32 33 34 35 36 37 38 39 40 41 42 43 44 45 46 47 48 49 50
000
ASUS45 KSLC 101010
RWRUT

UTAH REGIONAL WEATHER ROUNDUP
NATIONAL WEATHER SERVICE SALT LAKE CITY UT
300 AM MST SAT DEC 10 2016

UTZ001>011-023>025-101100-

NORTHERN UTAH

CITY           SKY/WX    TMP DP  RH WIND       PRES   REMARKS
BRIGHAM CITY     N/A     35  31  86 NW7       29.99F WCI  29
HILL AFB       CLOUDY    40  29  65 S12       30.00S WCI  34
LOGAN          CLOUDY    37  32  82 E8        29.98F WCI  31
OGDEN          CLOUDY    40  30  67 S6        29.99F
SALT LAKE CITY CLOUDY    36  31  82 CALM      29.98F
WENDOVER       CLOUDY    27  21  80 NE5       30.00S WCI  21
HEBER CITY     CLOUDY    43  28  56 E6        30.04R

$$

UTZ011>015-024>027-101100-

CENTRAL/NORTHEAST UTAH

CITY           SKY/WX    TMP DP  RH WIND       PRES   REMARKS
PROVO AIRPORT  CLOUDY    39  28  64 SE8       30.05F WCI  33
MOAB/CANYONLAN PTCLDY    20  11  68 CALM      30.19F
DELTA          CLOUDY    41  34  75 S16       30.07R
PRICE          MOCLDY    20  13  74 NW3       30.18R
ROOSEVELT      CLOUDY    18  14  86 CALM      30.16S
VERNAL         CLOUDY    16  11  80 CALM      30.13F

$$

UTZ013>016-019>022-027-101100-

SOUTHERN UTAH

CITY           SKY/WX    TMP DP  RH WIND       PRES   REMARKS
BRYCE CANYON   CLEAR     13  10  88 SW6       30.22S WCI   4
CEDAR CITY     PTCLDY    26  23  88 N6        30.16F WCI  19
MILFORD        MOCLDY    40  34  79 S21G32    30.12F WCI  30
ST GEORGE      CLOUDY    39  27  60 CALM      30.23F
HANKSVILLE     MOCLDY    16   9  73 CALM      30.25S
BLANDING       CLEAR     28  22  79 NE3       30.29S

$$

REGIONAL REPORTS     COLORADO/ARIZONA

CITY           SKY/WX    TMP DP  RH WIND       PRES   REMARKS
CRAIG, CO      CLOUDY    27  23  85 SE3       30.09F
GRAND JUNCTION CLOUDY    22  19  89 NE3       30.21R
RIFLE, CO      CLOUDY    24  21  88 CALM      30.21S
MONTROSE, CO   CLOUDY    25  21  85 S3        30.22R
CORTEZ, CO     CLOUDY    22  20  92 NE5       30.24S WCI  16
COLORADO CITY    N/A     28  27  93 SE3       30.26S
PAGE, AZ       CLEAR     33  16  49 CALM      30.21S
GRAND CANYON   PTCLDY    22  21  96 CALM      30.25S
KINGMAN, AZ    CLEAR     35  30  82 E3        30.19F
FLAGSTAFF, AZ  CLEAR     24  23  96 CALM      30.26F

$$

REGIONAL REPORTS    NEVADA/IDAHO/WYOMING

CITY           SKY/WX    TMP DP  RH WIND       PRES   REMARKS
LAS VEGAS, NV  PTCLDY    42  15  33 CALM      30.18F
ELY, NY        CLOUDY    31  25  78 E6        30.12S WCI  25
ELKO, NV       CLOUDY    39  28  64 CALM      29.97F
POCATELLO, ID  LGT RAIN  37  34  89 S13       29.95F WCI  29
BURLEY, ID     LGT RAIN  37  35  92 SW6       29.93F WCI  32
FORT BRIDGER,  PTSUNNY   38  26  61 W16       30.02F WCI  29
EVANSTON, WY   CLOUDY    36  22  56 SW10      30.01F WCI  28
ROCK SPRINGS,  CLOUDY    31  22  69 SW8       29.99F WCI  23
KEMMERER, WY     N/A     32  27  80 W15       29.99S WCI  22

$$



USA.gov is the U.S. government's official web portal to all federal, state and local government web resources and services.